Regional Weather Roundup
Issued by NWS

Home | Current Version | Previous Version | Text Only | Print | Product List | Glossary On
Versions: 1 2 3 4 5 6 7 8 9 10 11 12 13 14 15 16 17 18 19 20 21 22 23 24 25 26 27 28 29 30 31 32 33 34 35 36 37 38 39 40 41 42 43 44 45 46 47 48 49 50
000
ASUS42 KKEY 042110
RWRKEY

FLORIDA REGIONAL WEATHER ROUNDUP FOR THE FLORIDA KEYS
NATIONAL WEATHER SERVICE KEY WEST FLORIDA
500 PM EDT TUE AUG 04 2015

...SOUTH FLORIDA AND THE KEYS...

CITY           SKY/WX    TMP DP  RH WIND       PRES   REMARKS
FORT MYERS     MOSUNNY   93  68  43 NW12      30.02F HX  97
SW REGIONAL AP SUNNY     93  65  39 N8        30.03F HX  95
NAPLES         MOSUNNY   89  73  59 W7        30.05R HX  97
MIAMI          MOSUNNY   89  70  53 CALM      30.04F HX  94
WEST KENDALL   PTSUNNY   84  72  67 NW7       30.05S
HOMESTEAD      MOSUNNY   89  73  58 E6        30.04S HX  97
MARATHON       SUNNY     91  75  59 SE7       30.04S HX 101
BOCA CHICA NAS MOSUNNY   89  75  63 E12       30.04R HX  99
KEY WEST INTL  SUNNY     90  77  65 E12       30.04R HX 103

...INTERNATIONAL WEATHER...

CITY           SKY/WX    TMP DP  RH WIND       PRES   REMARKS
NASSAU BAHAMAS PTSUNNY   88  81  79 S9        30.07S HX 105
CANCUN MEXICO  PTSUNNY   88  77  70 NE13      29.99S HX 100
COZUMEL MEXICO PTSUNNY   86  75  70 SE14      29.97F HX  95

ADJACENT COASTAL WATERS...

STATION/POSITION TIME  SKY/WX   TEMP    WIND        PRES    WAVE
                                AIR SEA DIR/SP/G            HT/PER
                 (UTC)          (F)     (DEG/KT/KT) (MB)    (FT/S)
PULASKI SHOAL LI 2000            86      60/  5/  6 1016.9F
SAND KEY         2050            85     110/ 10/ 12 1017.2R
SOMBRERO KEY     2100            88     110/  9/ 10 1018.2R
LONG KEY         2100            86 89  120/  8/  9 1018.2R
MOLASSES REEF    2100            85 88   90/  6/  7 1017.5R
FOWEY ROCKS      NOT AVBL

$$


USA.gov is the U.S. government's official web portal to all federal, state and local government web resources and services.